Location: Chavannes
(47.1090°N, 0.2226°W)
Time: 15:50:35
(UTC+00:00)

ATLAS 3B R/B - Pass Details

Date: 16 October 2021
Orbit: 989 x 1206 km, 63.8° (Epoch: 25 November)

Event Time Altitude Azimuth Distance (km) Brightness Sun altitude
Rises 20:17:10 0° 267° (W) 3,750 6.4 -31.9°
Reaches altitude 10° 20:20:12 10° 280° (W) 2,828 5.7 -32.3°
Maximum altitude 20:25:44 27° 336° (NNW) 1,922 4.4 -33.2°
Enters shadow 20:30:06 15° 24° (NNE) 2,575 4.7 -33.9°
